Central Park, NY

1:46 AM EDT on June 19, 2018 (GMT -0400)
Central Park

Weather History for KNYC - September, 2001

Change the Weather History Date:

Monday, September 10, 2001

  Actual Average Record
Temperature  
Mean Temperature 76 °F 70 °F  
Max Temperature 86 °F 77 °F 97 °F (1983)
Min Temperature 68 °F 63 °F 43 °F (1883)
Degree Days  
Heating Degree Days 0 1  
Month to date heating degree days 1  
Since 1 July heating degree days 3  
Cooling Degree Days 11 6  
Month to date cooling degree days 68  
Year to date cooling degree days 1022  
Growing Degree Days 26 (Base 50)    
Moisture  
Dew Point 70 °F    
Average Humidity 86    
Maximum Humidity 100    
Minimum Humidity 67    
Precipitation  
Precipitation 1.16 in 0.13 in 1.58 in (2015)
Month to date precipitation 1.32  
Year to date precipitation 34.56  
Snow  
Snow 0.00 in 0.00 in 0.00 in (2002)
Month to date snowfall 0.0  
Since 1 July snowfall 0.0  
Snow Depth -    
Sea Level Pressure  
Sea Level Pressure 30.08 in    
Wind  
Wind Speed 7 mph (SSW)    
Max Wind Speed 10 mph    
Max Gust Speed 18 mph    
Visibility 9 miles    
Events Rain    
T = Trace of Precipitation, MM = Missing Value Source: NWS Daily Summary

Daily Weather History Graph

Daily Weather History Graph

Search for Another Location

Airport or City:

Astronomy

Sep. 10, 2001 Rise Set
Actual Time 6:31 AM EDT 7:13 PM EDT
Civil Twilight 6:04 AM EDT 7:40 PM EDT
Nautical Twilight 5:31 AM EDT 8:13 PM EDT
Astronomical Twilight 4:57 AM EDT 8:47 PM EDT
Moon 11:42 PM EDT (9/10) 2:02 PM EDT (9/10)
Length of Visible Light 13h 36m
Length of Day
12h 41m
Waning Gibbous, 51% of the Moon is Illuminated
Sep 10
Waning Gibbous
Sep 10
Last Quarter
Sep 17
New
Sep 24
First Quarter
Oct 2
Full

Hourly Weather History & Observations

Time (EDT) Temp. Heat Index Dew Point Humidity Pressure Visibility Wind Dir Wind Speed Gust Speed Precip Events Conditions
12:51 AM 73.0 °F - 69.1 °F 87% 30.16 in 10.0 mi SW 8.1 mph - N/A   Scattered Clouds
1:51 AM 73.0 °F - 69.1 °F 87% 30.15 in 10.0 mi SSW 6.9 mph - N/A   Mostly Cloudy
2:51 AM 73.0 °F - 69.1 °F 87% 30.15 in 10.0 mi Variable 3.5 mph - N/A   Overcast
3:51 AM 73.0 °F - 69.1 °F 87% 30.14 in 10.0 mi WSW 9.2 mph 17.3 mph N/A   Mostly Cloudy
4:51 AM 73.0 °F - 69.1 °F 87% 30.13 in 10.0 mi SSW 6.9 mph - N/A   Overcast
5:51 AM 73.0 °F - 70.0 °F 90% 30.13 in 10.0 mi SSW 4.6 mph - N/A   Mostly Cloudy
6:51 AM 73.9 °F - 70.0 °F 87% 30.12 in 10.0 mi SW 8.1 mph - N/A   Overcast
7:51 AM 75.0 °F - 71.1 °F 87% 30.13 in 10.0 mi SSW 5.8 mph - N/A   Mostly Cloudy
8:51 AM 75.9 °F - 70.0 °F 82% 30.12 in 10.0 mi Variable 3.5 mph - N/A   Scattered Clouds
9:51 AM 77.0 °F - 70.0 °F 79% 30.12 in 10.0 mi SSW 5.8 mph - N/A   Overcast
10:51 AM 78.1 °F - 71.1 °F 79% 30.11 in 9.0 mi South 8.1 mph - N/A   Overcast
11:51 AM 80.1 °F 83.6 °F 71.1 °F 74% 30.09 in 10.0 mi SSW 9.2 mph 18.4 mph N/A   Mostly Cloudy
12:51 PM 82.0 °F 86.3 °F 71.1 °F 69% 30.07 in 10.0 mi South 9.2 mph - N/A   Mostly Cloudy
1:51 PM 84.0 °F 89.6 °F 72.0 °F 67% 30.05 in 10.0 mi SSW 6.9 mph - N/A   Mostly Cloudy
2:51 PM 82.9 °F 87.5 °F 71.1 °F 67% 30.03 in 10.0 mi South 5.8 mph 16.1 mph N/A   Scattered Clouds
3:51 PM 75.9 °F - 73.9 °F 94% 30.02 in 10.0 mi South 6.9 mph - 0.41 in   Mostly Cloudy
4:51 PM 75.0 °F - 73.9 °F 96% 30.02 in 9.0 mi South 10.4 mph - N/A   Overcast
5:51 PM 73.9 °F - 73.9 °F 100% 30.03 in 5.0 mi SSE 8.1 mph - 0.17 in Rain Light Rain
6:51 PM 73.9 °F - 73.9 °F 100% 30.01 in 4.0 mi South 4.6 mph - 0.01 in   Mostly Cloudy
7:51 PM 71.1 °F - 71.1 °F 100% 30.02 in 3.0 mi West 4.6 mph - 0.57 in Rain Light Rain
8:51 PM 70.0 °F - 68.0 °F 93% 30.06 in 10.0 mi NNE 4.6 mph - 0.00 in   Mostly Cloudy
9:51 PM 69.1 °F - 66.0 °F 90% 30.06 in 10.0 mi NW 6.9 mph - N/A   Mostly Cloudy
10:51 PM 68.0 °F - 64.0 °F 87% 30.06 in 10.0 mi NW 4.6 mph - N/A   Partly Cloudy
11:51 PM 68.0 °F - 62.1 °F 81% 30.06 in 10.0 mi Variable 5.8 mph - N/A   Mostly Cloudy